Weather History for Poprad, Slovakia

Change the Weather History Date:

Wednesday, May 22, 2013

  Actual Average Record
Temperature  
Mean Temperature 48 °F -  
Max Temperature 62 °F 66 °F 77 °F (2007)
Min Temperature 35 °F 45 °F 35 °F (2013)
Degree Days  
Heating Degree Days 16    
Moisture  
Dew Point 42 °F    
Average Humidity 77    
Maximum Humidity 93    
Minimum Humidity 33    
Precipitation  
Precipitation 0.04 in 0.11 in - ()
Sea Level Pressure  
Sea Level Pressure 29.74 in    
Wind  
Wind Speed 5 mph ()    
Max Wind Speed 23 mph    
Max Gust Speed 33 mph    
Visibility 6.8 miles    
Events Fog , Rain    
Averages and records for this station are not official NWS values.
T = Trace of Precipitation, MM = Missing Value Source: Averaged Metar Reports

Daily Weather History Graph

Daily Weather History Graph

Search for Another Location

Airport:

Trip Planner

Search our weather history database for the weather conditions in past years. The results will help you decide how hot, cold, wet, or windy it might be!

Date:

Astronomy

May. 22, 2013 Rise Set
Actual Time 4:48 AM CEST 8:24 PM CEST
Civil Twilight 4:08 AM CEST 9:03 PM CEST
Nautical Twilight 3:15 AM CEST 9:57 PM CEST
Astronomical Twilight 2:01 AM CEST 11:13 PM CEST
Moon 5:11 PM CEST (5/22) 2:57 AM CEST (5/22)
Length of Visible Light 16h 55m
Length of Day
15h 36m
Waxing Gibbous, 89% of the Moon is Illuminated
May 22
Waxing Gibbous
May 25
Full
May 31
Last Quarter
Jun 8
New
Jun 16
First Quarter

Hourly Weather History & Observations

Time (CEST) Temp. Windchill Dew Point Humidity Pressure Visibility Wind Dir Wind Speed Gust Speed Precip Events Conditions
12:00 AM 41 °F - 38 °F 85%  in 25 mi 2.2 mph - -   Clear
12:00 AM 41.0 °F - 39.2 °F 93% 29.86 in - Variable 2.3 mph - N/A   Clear
12:30 AM 41.0 °F - 37.4 °F 87% 29.86 in - Variable 2.3 mph - N/A   Clear
1:00 AM 41 °F - 38 °F 85%  in 25 mi SW 2.2 mph - -   Scattered Clouds
1:00 AM 41.0 °F - 37.4 °F 87% 29.86 in 6.2 mi Variable 1.2 mph - N/A   Partly Cloudy
1:30 AM 41.0 °F - 37.4 °F 87% 29.86 in 6.2 mi NW 2.3 mph - N/A   Scattered Clouds
2:00 AM 39 °F - 37 °F 90%  in 25 mi NE 2.2 mph - -   Partly Cloudy
2:00 AM 39.2 °F - 37.4 °F 93% 29.83 in 6.2 mi NE 2.3 mph - N/A   Scattered Clouds
2:30 AM 39.2 °F 37.0 °F 37.4 °F 93% 29.83 in 6.2 mi NW 3.5 mph - N/A   Scattered Clouds
3:00 AM 40 °F - 38 °F 92%  in 25 mi WNW 4.5 mph - -   Partly Cloudy
3:00 AM 41.0 °F 38.0 °F 39.2 °F 93% 29.83 in 6.2 mi WNW 4.6 mph - N/A   Scattered Clouds
3:30 AM 39.2 °F 37.0 °F 37.4 °F 93% 29.80 in 6.2 mi West 3.5 mph - N/A   Scattered Clouds
4:00 AM 37 °F - 35 °F 89%  in 19 mi 2.2 mph - -   Partly Cloudy
4:00 AM 37.4 °F - 35.6 °F 93% 29.80 in 6.2 mi Variable 1.2 mph - N/A   Scattered Clouds
4:30 AM 37.4 °F - 35.6 °F 93% 29.80 in 6.2 mi Calm Calm - N/A   Partly Cloudy
5:00 AM 36 °F - 35 °F 92%  in 19 mi NW 2.2 mph - -   Scattered Clouds
5:00 AM 35.6 °F 32.8 °F 33.8 °F 93% 29.80 in 6.2 mi NW 3.5 mph - N/A   Partly Cloudy
5:30 AM 35.6 °F - 33.8 °F 93% 29.80 in 6.2 mi NNE 2.3 mph - N/A   Partly Cloudy
5:46 AM 39.2 °F - 37.4 °F 93% 29.80 in 6.2 mi Variable 1.2 mph - N/A   Partly Cloudy
6:00 AM 40 °F - 38 °F 91%  in 7 mi Calm Calm - - Fog Light Fog
6:00 AM 39.2 °F - 37.4 °F 93% 29.80 in 6.2 mi WSW 1.2 mph - N/A Fog Partly Cloudy
6:30 AM 42.8 °F - 41.0 °F 93% 29.80 in 6.2 mi WSW 1.2 mph - N/A Fog Partly Cloudy
7:00 AM 45 °F - 42 °F 86%  in 7 mi Calm Calm - - Fog Light Fog
7:00 AM 44.6 °F - 41.0 °F 87% 29.77 in 6.2 mi Variable 1.2 mph - N/A Fog Partly Cloudy
7:30 AM 46.4 °F - 42.8 °F 87% 29.77 in 6.2 mi Calm Calm - N/A Fog Partly Cloudy
8:00 AM 48 °F - 44 °F 80%  in 6 mi Calm Calm - - Fog Light Fog
8:00 AM 48.2 °F - 44.6 °F 87% 29.77 in 6.2 mi Calm Calm - N/A Fog Partly Cloudy
8:30 AM 50.0 °F - 44.6 °F 82% 29.77 in 6.2 mi Variable 1.2 mph - N/A Fog Patches of Fog
9:00 AM 52 °F - 46 °F 75%  in 3 mi 2.2 mph - - Fog Light Fog
9:00 AM 51.8 °F - 46.4 °F 82% 29.74 in 6.2 mi Variable 2.3 mph - N/A Fog Patches of Fog
9:30 AM 53.6 °F - 48.2 °F 82% 29.74 in 6.2 mi SE 3.5 mph - N/A   Partly Cloudy
10:00 AM 53 °F - 47 °F 73%  in 25 mi 4.5 mph - -   Partly Cloudy
10:00 AM 53.6 °F - 46.4 °F 77% 29.74 in 6.2 mi SE 4.6 mph - N/A   Mostly Cloudy
10:30 AM 53.6 °F - 48.2 °F 82% 29.74 in 6.2 mi SSE 5.8 mph - N/A   Mostly Cloudy
11:00 AM 53 °F - 47 °F 74%  in 25 mi SE 8.9 mph - -   Partly Cloudy
11:00 AM 51.8 °F - 46.4 °F 82% 29.74 in 6.2 mi SE 8.1 mph - N/A   Mostly Cloudy
11:30 AM 53.6 °F - 46.4 °F 77% 29.74 in 6.2 mi SSE 6.9 mph - N/A   Mostly Cloudy
12:00 PM 54 °F - 48 °F 72%  in 31 mi SSE 8.9 mph - -   Partly Cloudy
12:00 PM 53.6 °F - 48.2 °F 82% 29.71 in 6.2 mi SSE 8.1 mph - N/A   Mostly Cloudy
12:30 PM 53.6 °F - 46.4 °F 77% 29.71 in 6.2 mi SSE 9.2 mph - N/A   Mostly Cloudy
1:00 PM 54 °F - 47 °F 69%  in 31 mi SSE 8.9 mph - -   Partly Cloudy
1:00 PM 55.4 °F - 46.4 °F 72% 29.71 in 6.2 mi SSE 9.2 mph - N/A   Mostly Cloudy
1:30 PM 57.2 °F - 46.4 °F 67% 29.71 in 6.2 mi SSE 8.1 mph - N/A   Mostly Cloudy
2:00 PM 58 °F - 45 °F 51%  in 31 mi SE 8.9 mph - -   Partly Cloudy
2:00 PM 57.2 °F - 44.6 °F 63% 29.68 in 6.2 mi SE 9.2 mph - N/A   Mostly Cloudy
2:30 PM 57.2 °F - 42.8 °F 59% 29.68 in 6.2 mi Variable 4.6 mph - N/A Rain Rain Showers
2:49 PM 55.4 °F - 44.6 °F 67% 29.68 in 6.2 mi SW 6.9 mph - N/A Rain Light Rain Showers
3:00 PM 57 °F - 49 °F 65%  in 28 mi 4.5 mph - - Rain Light Rain Showers
3:00 PM 55.4 °F - 46.4 °F 72% 29.68 in 6.2 mi SSW 4.6 mph - N/A   Mostly Cloudy
3:06 PM 59.0 °F - 48.2 °F 67% 29.68 in 6.2 mi Variable 3.5 mph - N/A   Mostly Cloudy
3:30 PM 60.8 °F - 42.8 °F 52% 29.68 in 6.2 mi West 4.6 mph - N/A   Scattered Clouds
4:00 PM 60 °F - 39 °F 33%  in 28 mi WSW 6.7 mph - -   Partly Cloudy
4:00 PM 60.8 °F - 39.2 °F 45% 29.65 in 6.2 mi WSW 6.9 mph - N/A   Partly Cloudy
4:30 PM 60.8 °F - 39.2 °F 45% 29.65 in 6.2 mi SE 3.5 mph - N/A   Partly Cloudy
4:38 PM 57.2 °F - 39.2 °F 51% 29.65 in 6.2 mi West 11.5 mph - N/A   Partly Cloudy
4:48 PM 57.2 °F - 39.2 °F 51% 29.65 in 6.2 mi West 21.9 mph 33.4 mph N/A   Partly Cloudy
5:00 PM 54 °F - 40 °F 48%  in 19 mi West 22.4 mph - - Rain Light Rain Showers
5:00 PM 55.4 °F - 39.2 °F 54% 29.65 in 6.2 mi West 23.0 mph - N/A   Mostly Cloudy
5:30 PM 51.8 °F - 42.8 °F 71% 29.68 in 6.2 mi WSW 21.9 mph - N/A   Mostly Cloudy
6:00 PM 50 °F - 43 °F 69%  in 28 mi WSW 20.1 mph - - Rain Light Rain
6:00 PM 50.0 °F - 42.8 °F 76% 29.68 in 6.2 mi West 21.9 mph - N/A Rain Light Rain
6:30 PM 50.0 °F - 42.8 °F 76% 29.68 in 6.2 mi West 16.1 mph - N/A   Mostly Cloudy
7:00 PM 50 °F - 42 °F 65%  in 28 mi West 13.4 mph - - Rain Light Rain
7:00 PM 50.0 °F - 41.0 °F 71% 29.68 in 6.2 mi West 13.8 mph - N/A   Mostly Cloudy
7:30 PM 50.0 °F - 42.8 °F 76% 29.71 in 6.2 mi West 9.2 mph - N/A   Partly Cloudy
8:00 PM 50 °F - 42 °F 66%  in 37 mi West 6.7 mph - -   Partly Cloudy
8:00 PM 50.0 °F - 42.8 °F 76% 29.71 in 6.2 mi West 5.8 mph - N/A   Partly Cloudy
8:30 PM 48.2 °F - 41.0 °F 76% 29.71 in 6.2 mi West 5.8 mph - N/A   Partly Cloudy
9:00 PM 47 °F - 41 °F 73%  in 37 mi West 4.5 mph - -   Scattered Clouds
9:00 PM 46.4 °F 43.5 °F 41.0 °F 81% 29.71 in 6.2 mi West 5.8 mph - N/A   Partly Cloudy
9:30 PM 44.6 °F 40.7 °F 41.0 °F 87% 29.71 in 6.2 mi WNW 6.9 mph - N/A   Partly Cloudy
10:00 PM 44 °F - 40 °F 81%  in 31 mi SW 4.5 mph - -   Scattered Clouds
10:00 PM 44.6 °F 41.4 °F 39.2 °F 81% 29.74 in 6.2 mi WSW 5.8 mph - N/A   Partly Cloudy
10:30 PM 42.8 °F 38.6 °F 39.2 °F 87% 29.74 in 6.2 mi WNW 6.9 mph - N/A   Partly Cloudy
11:00 PM 45 °F - 42 °F 83%  in 31 mi WSW 8.9 mph - -   Scattered Clouds
11:00 PM 44.6 °F 39.7 °F 41.0 °F 87% 29.74 in 6.2 mi WSW 9.2 mph - N/A   Partly Cloudy
11:30 PM 44.6 °F 39.7 °F 41.0 °F 87% 29.74 in 6.2 mi SW 9.2 mph - N/A   Partly Cloudy